METAR Formatted Surface Weather Observation
Issued by NWS Jackson, MS

Home | Current Version | Previous Version | Text Only | Print | Product List | Glossary On
Versions: 1 2 3 4 5 6 7 8 9 10 11 12 13 14 15 16 17 18 19 20 21 22 23 24 25 26 27 28 29 30 31 32 33 34 35 36 37 38 39 40 41 42 43 44 45 46 47 48 49 50
761
SAUS44 KMEG 060554
MTRTUP
METAR KTUP 060553Z AUTO 30007KT 3SM RA BR OVC004 11/10 A2970 RMK AO2
LTG DSNT SW RAB05 SLP056 P0014 60039 T01110100 10111 20100 401110078
56007



USA.gov is the U.S. government's official web portal to all federal, state and local government web resources and services.